Zurück zum Katalog

STARLINK-36123

AktivKommunikationVLEO
NORAD 67007·PAYLOAD·🇺🇸 United States

Gestartet Dec 10, 2025 von Vandenberg Space Force Base

Loading…

Nächste Überflüge (nächste 24 Stunden)

TLE

AktuellSource: CelesTrak SupGP

Epoche: Sep 14, 2026, 21:27 UTC

1 67007C 25293E   26257.89423611 -.00042931  00000+0 -36001-2 0  2576
2 67007  70.0017 337.3041 0003292 270.0993   8.3816 14.98327294    10

Verfolge STARLINK-36123 in Echtzeit mit AllMySat

Download on the App Store